Terminal Aerodrome Forecast
Issued by NWS

Home | Current Version | Previous Version | Text Only | Print | Product List | Glossary On
Versions: 1 2 3 4 5 6 7 8 9 10 11 12
108
FTUS42 TJSJ 260531
TAFJMZ
TAF
TJMZ 260531Z 2606/2706 06006KT P6SM FEW040
     FM261600 09006KT P6SM VCTS SCT025CB BKN030
     FM262300 06006KT P6SM FEW025 SCT060
      AMD NOT SKED=

USA.gov is the U.S. government's official web portal to all federal, state and local government web resources and services.